{"data":{"norad_id":41911,"epoch":"2026-05-25T02:20:53.342304Z","epoch_age_seconds":56761,"freshness":"FRESH","line1":"1 41911U 17001A   26145.09783961 -.00000008  00000+0  00000+0 0  9993","line2":"2 41911   0.7758  85.6077 0000521 336.4115 282.4349  1.00270294 34485","mean_motion":1.00270294,"eccentricity":5.21e-5,"inclination_deg":0.7758,"raan_deg":85.6077,"arg_perigee_deg":336.4115,"mean_anomaly_deg":282.4349,"bstar":0,"rev_number":3448,"period_min":1436.1182585143,"perigee_km":35784.816143483,"apogee_km":35789.209752107,"semimajor_km":42165.149947795,"source":"CELESTRAK","updated_at":"2026-05-25T13:38:14.011916Z"}}